Погода в Камышлове

Погода в Камышлове : погода сейчас, прогноз погоды и архив. Всё, что Вы хотите узнать о погоде в Камышлове!

Хотите узнать прогноз погоды в Камышлове? Тогда Вам сюда: Погода в Камышлове

Поиск расширенной информации на нашем сайте:

Другие новости

Новости СМИ2

Главная страница сайта

Новости сайта

02.10.2013

Напоминаем, что на нашем новом сайте вы можете получить высокодетализированные прогнозы погоды по пунктам России, СНГ и мира (включающие важные для авиации метеовеличины, такие как направление и скорость ветра, видимость, явления погоды, количество и форма облачности, нижняя и верхняя граница облачности), а также ознакомиться с разнообразными материалами по авиационной метеорологии и подборкой полезных ссылок на эту тему.

Сайт Метеоцентр.Азия посвящён разработке технологий оптимизации авиаметеорологического обслуживания, включая проектирование и перспективное создание нескольких автоматизированных авиаметеорологических систем:
- система выпуска высокодетальных прогностических карт явлений погоды для нижнего воздушного пространства по России и ближнему зарубежью;
- система верификации прогнозов TAF (выпускаемых синоптиками официальных АМСГ РФ и ближнего зарубежья) и AUTOTAF (выпускаемых сайтом Метеоцентр.Азия) - выявление ошибок, онлайн-сопоставление с фактической погодой METAR, автоматическое внесение коррективов в прогнозы при резком отклонении фактической погоды от прогноза, подсчёт оправдываемости прогнозов по элементам и в целом;
- система обработки, анализа и отображения авиаметеорологической информации для применения провайдерами метеорологической информации.


Погода в Камышлове - сегодня

Время (UTC), дата Ветер
(°,м/с) 
Видим.   Явления Облачность Т
(°С)
Тd
(°С)
f(%) Тe
(°С)
Pmin
(гПа)
dP
(гПа)
Po
(мм)
O2
(г/м3)
Тmin Tmax R s Состояние
почвы
03 22.05.17 230 (ЮЗ) 2000 м  морось  10/10 300 м 
[St]
+14.2 +12.6 90 +19  989.5  731  278  +11.6      мокрая 
06 22.05.17 310 (СЗ) 7-11{13}  20000 м  {морось}  10/10 600 м 
[Sc]
+7.7 +5.3 85 +5  996.2  6.3  736  287  +7.7         
09 22.05.17 290 (З) 5{11}  20000 м    10/10 600 м 
[Sc]
+7.5 +3.9 78 +6  1001.1  4.8  739  289           
12 22.05.17 320 (СЗ) 20000 м    10/10 600 м 
[Sc]
+8.3 +2.3 66 +7  1003.6  2.4  741  289           
15 22.05.17 350 (С) 20000 м    10/10 600 м 
[Sc]
+7.8 +2.7 70 +7  1004.3  0.7  742  290    +14.3  0.0     
18 22.05.17 060 (СВ) 4000 м    10/10 600 м 
[Sc]
+6.2 +3 80 +7  1004.3  -0.1  742  292           
21 22.05.17 090 (В) 4000 м    10/10 600 м 
[Sc]
+5.6 +3 83 +6  1005.3  742  293           
00 23.05.17 030 (СВ) 20000 м    10/10 600 м 
[Sc]
+5.1 -0.3 68 +4  1004.3  -1.1  742  293           
03 23.05.17 030 (СВ) 20000 м    10/10 600 м 
[Sc]
+5.6 -3.3 53 +5  1003.4  -0.8  741  293  +5        мокрая 
06 23.05.17 010 (С) 20000 м    10/10 600 м 
[Sc]
+7 -3.6 47 +5  1003.5  0.2  741  292           
09 23.05.17 010 (С) 20000 м    10/10 600 м 
[Sc]
+8.3 -3.6 43 +7  1003.2  -0.2  741  290           
12 23.05.17 350 (С) 20000 м    10/0 средняя 
[Ac As]
+8.5 -2.5 46 +7  1003.7  0.4  741  290           
15 23.05.17 340 (С) 20000 м    10/5 600 м кучево-дожд., средняя 
[Cb cap|Ac As]
+8.5 -1.6 49 +10  1004.6  742  290    +9.2       
18 23.05.17 280 (З) 4000 м    10/10 600 м кучево-дожд. 
[Cb cap]
+6 +1.4 72 +7  1005.9  1.1  743  293           
21 23.05.17 240 (ЮЗ) 4000 м    ясно 
+5.6 +0.6 70 +6  1005.9  0.1  743  293           
00 24.05.17 220 (ЮЗ) 20000 м    10/0 средняя 
[Ac As]
+4.6 +1 77 +5  1006.5  0.6  743  294           
03 24.05.17 280 (З) 20000 м    10/0 средняя 
[Ac As]
+7.8 +1.4 64 +6  1007.3  0.9  744  291  +4.6        мокрая 
06 24.05.17 260 (З) 20000 м    8/0 средняя 
[Ac trans]
+10.3 -2 42 +9  1007.9  0.8  745  289           
09 24.05.17 280 (З) 6{10}  20000 м    8/8 600 м 
[Sc diur, vesp]
+13.8 -4.4 28 +13  1007.8  745  286           
12 24.05.17 300 (СЗ) 6-10{12}  20000 м    6/6 600 м 
[Cu med, cong]
+15.2 -7 21 +15  1007.4  -0.3  744  285           
15 24.05.17 260 (З) 5-10{10}  20000 м    8/8 600 м кучево-дожд. 
[Cb cap]
+14 -4.5 27 +13  1007.4  744  286    +15.9       
18 24.05.17 320 (СЗ) 7-11{12}  4000 м    8/8 600 м кучево-дожд. 
[Cb cap]
+11.1 +1.9 53 +9  1008.6  745  288           
21 24.05.17 290 (З) 3{11}  4000 м  {ливн. осадки}  6/0 средняя 
[Ac trans]
+6.9 +4.9 87 +6  1010.3  1.5  746  292           
00 25.05.17 300 (СЗ) 20000 м  {ливн. осадки}  ясно 
+4.3 +1 79 +3  1012.9  2.4  748  297           
03 25.05.17 320 (СЗ) 6-10{11}  20000 м    4/4 600 м 
[Cu med, cong]
+6.1 -2.4 54 +4  1015  2.1  750  296  +4.3      мокрая 
Время (UTC), дата Ветер
(°,м/с) 
Видим.   Явления Облачность Т
(°С)
Тd
(°С)
f(%) Тe
(°С)
Pmin
(гПа)
dP
(гПа)
Po
(мм)
O2
(г/м3)
Тmin Tmax R s Состояние
почвы

Для получения пояснительной информации подведите курсор к названию столбца.

ПОГОДА в Камышлове - архив

Всё, что Вы хотите узнать о погоде в Камышлове - удобно и подробно!

Выберите нужную дату (начиная с 1 января 2015* года) и нажмите кнопку "Найти".
Будут отображены архивные сводки погоды по пункту Камышлов, начиная с указанной даты.


Отображать данные в формате CSV (для использования в таблицах Excel)


Внимание! Наш архив погоды предназначен исключительно для личного некоммерческого использования в познавательных целях. Если Вам необходимы официальные справки о состоянии погоды (для производственных, юридических, коммерческих и т.п. целей), обращайтесь в органы Росгидромета.

*Примечание: данная дата относится к архиву по метеостанциям СССР (Россия, СНГ, Балтия).
Архив по метеостанциям Зарубежной Европы и Азии (кроме Китая) хранится 10 дней, по другим регионам земного шара (Китай, Африка, Америка, Австралия, Океания) - 1 день.

Камышлов - район местоположения метеостанции


Название, широта, долгота, высота метеостанции:
Камышлов 56.9°ш. 62.7°д. 127 м над ур. моря [Российская Федерация]

Дополнительная информация

В oтличие oт бoльшинства пoгoдных сайтoв мы публикуем пoдрoбную метеoинфoрмацию в детальнoм прoфессиoнальнoм фoрмате.

Характеристики температуры и влажнoсти вoздуха измеряются на высoте 2 м в тени вдали oт зданий и деревьев.
Скoрoсть ветра измеряется на высoте 10 м (на урoвне рoста челoвека скoрoсть ветра ниже в 1.5-2 раза). Если метеoстанция нахoдится в гoрoде или в лесу, тo скoрoсть ветра занижена на 2-4 м/с пo сравнению с oткрытым местoм. Скoрoсть ветра над акватoриями крупных рек и oзёр, а также на вершинах хoлмoв на 2-5 м/с выше, чем в oбычных услoвиях.
Атмoсфернoе давление в разных тoчках местнoсти мoжет значительнo oтличаться oт давления на метеoстанции, в зависимoсти oт услoвий рельефа (при пoдъёме на 10 м давление пoнижается примернo на 1 мм рт.ст.).